Location: Muck Cross
(36.7179°N, 78.3678°W)
Time: 15:48:55
(UTC+00:00)

A-11 Canister half - All Passes

Search period start: 15 April 2024 00:00
Search period end: 25 April 2024 00:00
Orbit: 1526 x 1682 km, 47.3° (Epoch: 14 April)

Date Brightness Start Highest point End Pass type
(mag) Time Alt. Az. Time Alt. Az. Time Alt. Az.
15 Apr - 10:13:04 10° S 10:21:31 33° SE 10:30:06 10° ENE visible
15 Apr - 12:15:48 10° WSW 12:25:55 87° NNW 12:36:10 10° ENE daylight
15 Apr - 14:22:19 10° W 14:32:06 49° N 14:41:50 10° ENE daylight
15 Apr - 16:29:11 10° WNW 16:39:04 52° NNE 16:48:45 10° E daylight
15 Apr - 18:34:48 10° WNW 18:44:56 81° SW 18:54:45 10° SE daylight
15 Apr - 20:41:27 10° WNW 20:48:56 25° SW 20:56:16 10° S daylight
16 Apr - 09:51:34 10° S 09:59:49 31° SE 10:08:11 10° ENE visible
16 Apr - 11:54:02 10° SW 12:04:07 90° NW 12:14:21 10° ENE daylight
16 Apr - 14:00:27 10° W 14:10:14 50° NNW 14:20:01 10° ENE daylight
16 Apr - 16:07:21 10° WNW 16:17:13 51° NNE 16:26:54 10° E daylight
16 Apr - 18:12:59 10° WNW 18:23:10 85° SW 18:33:01 10° SE daylight
16 Apr - 20:19:29 10° WNW 20:27:15 27° SW 20:34:51 10° S daylight
17 Apr - 09:30:06 10° S 09:38:07 29° SE 09:46:15 10° ENE visible
17 Apr - 11:32:16 10° SW 11:42:19 87° SSE 11:52:33 10° ENE daylight
17 Apr - 13:38:34 10° W 13:48:21 50° NNW 13:58:10 10° ENE daylight
17 Apr - 15:45:31 10° WNW 15:55:21 50° NNE 16:05:03 10° E daylight
17 Apr - 17:51:11 10° WNW 18:01:23 88° SW 18:11:16 10° SE daylight
17 Apr - 19:57:32 10° WNW 20:05:33 28° SW 20:13:25 10° S daylight
18 Apr - 09:08:39 10° S 09:16:24 27° SE 09:24:18 10° ENE visible
18 Apr - 11:10:32 10° SW 11:20:32 84° SE 11:30:46 10° ENE daylight
18 Apr - 13:16:43 10° W 13:26:30 51° NNW 13:36:21 10° ENE daylight
18 Apr - 15:23:40 10° WNW 15:33:29 49° NNE 15:43:10 10° E daylight
18 Apr - 17:29:23 10° WNW 17:39:35 89° NNE 17:49:32 10° SE daylight
18 Apr - 19:35:35 10° WNW 19:43:51 30° SW 19:51:57 10° S daylight
19 Apr - 08:47:13 10° S 08:54:42 25° SE 09:02:19 10° ENE visible
19 Apr - 10:48:47 10° SW 10:58:45 81° SE 11:08:57 10° ENE daylight
19 Apr - 12:54:50 10° W 13:04:39 52° NNW 13:14:31 10° ENE daylight
19 Apr - 15:01:50 10° WNW 15:11:38 49° N 15:21:19 10° E daylight
19 Apr - 17:07:34 10° WNW 17:17:48 86° NNE 17:27:46 10° ESE daylight
19 Apr - 19:13:40 10° WNW 19:22:09 32° SW 19:30:27 10° S daylight
20 Apr - 08:25:49 10° S 08:33:01 23° SE 08:40:20 10° ENE visible
20 Apr - 10:27:03 10° SW 10:36:59 78° SE 10:47:09 10° ENE daylight
20 Apr - 12:32:58 10° W 12:42:47 53° NNW 12:52:42 10° ENE daylight
20 Apr - 14:39:59 10° WNW 14:49:45 48° N 14:59:26 10° E daylight
20 Apr - 16:45:47 10° WNW 16:56:01 84° NNE 17:06:00 10° ESE daylight
20 Apr - 18:51:45 10° WNW 19:00:27 34° SW 19:08:57 10° S daylight
21 Apr - 08:04:28 10° S 08:11:20 22° SE 08:18:18 10° E visible
21 Apr - 10:05:20 10° SW 10:15:13 75° SE 10:25:21 10° ENE visible
21 Apr - 12:11:07 10° W 12:20:56 54° NNW 12:30:53 10° ENE daylight
21 Apr - 14:18:08 10° WNW 14:27:53 48° N 14:37:34 10° E daylight
21 Apr - 16:23:58 10° WNW 16:34:13 81° NNE 16:44:13 10° ESE daylight
21 Apr - 18:29:52 10° WNW 18:38:44 37° SW 18:47:25 10° SSE daylight
22 Apr - 07:43:08 10° SSE 07:49:39 20° SE 07:56:15 10° E visible
22 Apr - 09:43:38 10° SW 09:53:27 72° SE 10:03:32 10° ENE visible
22 Apr - 11:49:15 10° W 11:59:04 55° NNW 12:09:03 10° ENE daylight
22 Apr - 13:56:18 10° WNW 14:06:01 47° N 14:15:42 10° E daylight
22 Apr - 16:02:10 10° WNW 16:12:25 78° NNE 16:22:26 10° ESE daylight
22 Apr - 18:07:58 10° WNW 18:17:01 39° SW 18:25:53 10° SSE daylight
23 Apr - 07:21:52 10° SSE 07:27:58 19° ESE 07:34:09 10° E visible
23 Apr - 09:21:56 10° SW 09:31:41 69° SE 09:41:43 10° ENE visible
23 Apr - 11:27:24 10° W 11:37:13 57° NNW 11:47:14 10° ENE daylight
23 Apr - 13:34:27 10° WNW 13:44:08 47° N 13:53:49 10° ENE daylight
23 Apr - 15:40:22 10° WNW 15:50:36 76° NNE 16:00:38 10° ESE daylight
23 Apr - 17:46:06 10° WNW 17:55:18 41° SW 18:04:19 10° SSE daylight
24 Apr - 07:00:38 10° SSE 07:06:17 17° ESE 07:11:59 10° E visible
24 Apr - 09:00:15 10° SW 09:09:56 66° SE 09:19:54 10° ENE visible
24 Apr - 11:05:33 10° W 11:15:23 58° NNW 11:25:24 10° ENE daylight
24 Apr - 13:12:35 10° WNW 13:22:15 47° N 13:31:56 10° ENE daylight
24 Apr - 15:18:34 10° WNW 15:28:47 73° NNE 15:38:49 10° ESE daylight
24 Apr - 17:24:14 10° WNW 17:33:35 44° SW 17:42:44 10° SSE daylight
